DRAGON CRS-19 DEB (44822 NORAD) Tracking and Keplerian Element Data

This shows tracking and keplerian element data for the satellite.

Feedback or suggestion? Click here.




ElementValue
Catalog44822
NameDRAGON CRS-19 DEB
Epoch Orbit115
Epoch Day346.87108228
Epoch Year2019
RAAN192.7864
Inclination51.6235
Eccentricity0.0022199
Argument of Perigee74.1503
Mean Anonmoly286.8517
Mean Motion16.39348592
Decay Rate0.17456057
L11 44822U 19083B 19346.87108228 .17456057 12481-4 10752-2 0 9992
L22 44822 51.6235 192.7864 0022199 74.1503 286.8517 16.39348592 1158

Live tracking and technical data element details for DRAGON CRS-19 DEB (NORAD 44822). DRAGON CRS-19 DEB can be tracked NOW for your location showing map with azimuth and elevation plus other details from your city location.

Track the satellite on the map from your city or location and see movement details for azimuth, elevation, latitude, longitude, range, height, and movement on the map or in text.







IsCatalogInMostPopularTable: catalog: 44822, numindb: 7
Update: records affected: 1



GetName: 44822 DRAGON CRS-19 DEB

Hit Count: updated at: Sat, 18 Jan 2020 18:38:57 GMT